Weather History for KMFR - April, 2013

Change the Weather History Date:

Wednesday, April 17, 2013

  Actual Average Record
Temperature  
Mean Temperature 48 °F 53 °F  
Max Temperature 63 °F 65 °F 86 °F (1954)
Min Temperature 33 °F 41 °F 25 °F (1968)
Degree Days  
Heating Degree Days 17 12  
Month to date heating degree days 232 228  
Since 1 July heating degree days 3783 3860  
Cooling Degree Days 0 0  
Month to date cooling degree days 0 0  
Year to date cooling degree days 0 0  
Moisture  
Dew Point 31 °F    
Average Humidity 58    
Maximum Humidity 89    
Minimum Humidity 27    
Precipitation  
Precipitation 0.00 in 0.04 in 0.68 in (2000)
Month to date precipitation 1.03 0.80  
Year to date precipitation 3.04 6.95  
Snow  
Snow 0.00 in 0.00 in - ()
Month to date snowfall 0.0 0.1  
Since 1 July snowfall 1.7 4.2  
Snow Depth 0.00 in    
Sea Level Pressure  
Sea Level Pressure 30.42 in    
Wind  
Wind Speed 3 mph (NW)    
Max Wind Speed 14 mph    
Max Gust Speed 17 mph    
Visibility 10 miles    
Events      
T = Trace of Precipitation, MM = Missing Value Source: NWS Daily Summary

Daily Weather History Graph

Daily Weather History Graph

Search for Another Location

Airport or City:

Trip Planner

Search our weather history database for the weather conditions in past years. The results will help you decide how hot, cold, wet, or windy it might be!

Date:

Astronomy

Apr. 17, 2013 Rise Set
Actual Time 6:26 AM PDT 7:55 PM PDT
Civil Twilight 5:57 AM PDT 8:25 PM PDT
Nautical Twilight 5:22 AM PDT 9:00 PM PDT
Astronomical Twilight 4:44 AM PDT 9:38 PM PDT
Moon 11:43 AM PDT (4/17) 1:39 AM PDT (4/17)
Length of Visible Light 14h 27m
Length of Day
13h 29m
Waxing Crescent, 43% of the Moon is Illuminated
Apr 17
Waxing Crescent
Apr 18
First Quarter
Apr 25
Full
May 2
Last Quarter
May 9
New

Hourly Weather History & Observations

Time (PDT) Temp. Windchill Dew Point Humidity Pressure Visibility Wind Dir Wind Speed Gust Speed Precip Events Conditions
12:53 AM 43.0 °F - 33.1 °F 68% 30.38 in 10.0 mi Calm Calm - N/A   Scattered Clouds
1:53 AM 42.1 °F 38.4 °F 34.0 °F 73% 30.38 in 10.0 mi West 5.8 mph - N/A   Partly Cloudy
2:53 AM 37.0 °F - 32.0 °F 82% 30.39 in 10.0 mi Calm Calm - N/A   Clear
3:53 AM 37.0 °F 34.5 °F 32.0 °F 82% 30.40 in 10.0 mi NNW 3.5 mph - N/A   Clear
4:53 AM 35.1 °F - 30.9 °F 85% 30.41 in 10.0 mi Calm Calm - N/A   Clear
5:53 AM 33.1 °F - 30.9 °F 92% 30.42 in 10.0 mi Calm Calm - N/A   Scattered Clouds
6:53 AM 35.6 °F - 32.0 °F 87% 30.43 in 10.0 mi Calm Calm - N/A   Clear
7:53 AM 37.9 °F - 33.1 °F 83% 30.47 in 10.0 mi Calm Calm - N/A   Clear
8:53 AM 39.9 °F - 34.0 °F 79% 30.48 in 10.0 mi Calm Calm - N/A   Clear
9:53 AM 46.0 °F - 35.1 °F 66% 30.48 in 10.0 mi Calm Calm - N/A   Clear
10:53 AM 48.9 °F - 33.1 °F 54% 30.47 in 10.0 mi Calm Calm - N/A   Clear
11:53 AM 51.1 °F - 27.0 °F 39% 30.45 in 10.0 mi WSW 4.6 mph - 0.01 in   Clear
12:53 PM 55.0 °F - 26.1 °F 33% 30.43 in 10.0 mi NE 5.8 mph - N/A   Clear
1:53 PM 57.0 °F - 27.0 °F 32% 30.42 in 10.0 mi Calm Calm - N/A   Scattered Clouds
2:53 PM 60.1 °F - 30.0 °F 32% 30.40 in 10.0 mi East 4.6 mph - N/A   Scattered Clouds
3:53 PM 60.1 °F - 28.0 °F 30% 30.38 in 10.0 mi West 8.1 mph - N/A   Clear
4:53 PM 61.0 °F - 26.1 °F 26% 30.37 in 10.0 mi WNW 6.9 mph - 0.00 in   Scattered Clouds
5:53 PM 61.0 °F - 28.0 °F 29% 30.37 in 10.0 mi North 9.2 mph - N/A   Partly Cloudy
6:53 PM 59.0 °F - 30.0 °F 33% 30.38 in 10.0 mi NNW 12.7 mph - N/A   Partly Cloudy
7:53 PM 55.9 °F - 33.1 °F 42% 30.39 in 10.0 mi NW 10.4 mph - N/A   Partly Cloudy
8:53 PM 54.0 °F - 32.0 °F 43% 30.41 in 10.0 mi NNW 5.8 mph - N/A   Clear
9:53 PM 50.0 °F - 32.0 °F 50% 30.43 in 10.0 mi Calm Calm - N/A   Clear
10:53 PM 48.0 °F - 33.1 °F 56% 30.43 in 10.0 mi Calm Calm - N/A   Clear
11:53 PM 46.9 °F - 33.1 °F 59% 30.42 in 10.0 mi Calm Calm - N/A   Clear